Wetbulb
68.98 70.68 74.06 74.05 74.04 73.92 73.80 73.36 73.67 74.28 74.96 75.40 76.57 76.70 76.73 76.71 76.82 77.06 77.08 77.22 77.23 77.31 77.06 77.44 77.30 77.86 77.14 77.20 77.12 77.36 77.11 77.24 76.97 76.87 77.11 76.24 76.94 77.07 76.91 76.71 76.65 75.23 76.56
69.94 71.63 74.75 75.12 74.30 73.99 74.37 74.54 74.02 75.32 75.20 76.17 76.16 76.65 76.74 77.00 77.07 77.28 77.23 77.35 77.02 77.03 77.22 77.30 77.08 77.20 76.94 77.10 77.17 76.96 77.08 77.17 77.66 77.13 76.92 76.89 76.59 76.79 77.51 76.83 76.78 75.83 76.69
70.23 72.49 73.48 75.60 75.28 74.71 74.54 74.05 73.57 75.72 76.28 76.26 76.48 76.73 76.86 76.98 76.82 76.92 76.98 76.94 76.87 77.09 77.14 77.18 77.08 77.27 77.10 77.04 76.84 76.91 76.66 76.74 77.31 77.62 75.49 72.47 73.30 76.72 76.83 76.15 75.94 76.07 76.05
71.66 73.28 73.59 76.02 76.03 75.60 74.67 75.57 75.98 76.63 76.60 76.53 76.54 76.95 77.04 76.67 76.92 76.79 76.88 77.08 77.27 76.87 76.79 77.01 77.31 77.12 77.14 76.93 76.26 76.12 76.31 75.81 75.91 76.76 71.42 72.89 73.19 75.72 75.07 75.25 75.08 74.98 75.13
71.16 72.72 73.38 75.60 75.68 75.91 75.78 76.19 76.09 76.91 76.52 76.48 76.84 76.87 76.71 76.54 76.72 76.92 77.17 77.10 77.11 77.25 77.35 77.36 77.41 76.94 76.80 76.35 76.39 76.12 76.42 75.53 75.65 74.60 71.53 71.26 72.59 75.33 76.33 76.54 75.88 76.14 75.55
70.77 72.39 75.41 76.37 75.76 76.11 76.38 76.42 76.29 76.61 76.22 76.87 77.14 77.09 76.49 76.40 76.51 76.81 77.20 77.07 77.38 77.23 77.38 77.09 76.84 76.66 76.58 76.61 76.17 75.29 75.74 76.85 76.68 73.41 73.66 75.02 73.21 76.26 76.61 76.09 75.93 75.42 75.25
71.73 73.44 74.60 77.02 75.93 76.65 76.09 76.56 76.44 76.28 76.49 76.73 77.17 77.14 76.85 76.95 77.20 77.14 77.21 77.36 76.73 76.32 76.56 76.34 76.10 75.74 75.90 75.91 75.50 75.07 75.87 77.16 72.89 72.27 72.36 72.34 73.95 76.71 75.12 75.00 75.37 74.94 74.85
70.43 73.31 74.40 76.94 76.54 76.77 76.05 76.26 76.51 76.53 76.75 76.90 77.06 76.97 77.00 77.11 77.44 77.65 77.15 77.38 76.88 75.99 75.07 75.27 75.51 75.32 75.07 74.46 74.52 75.07 75.13 76.90 74.56 73.30 73.55 73.42 76.13 76.70 75.91 75.28 74.71 75.00 74.74
69.53 73.28 73.76 74.04 75.17 76.63 76.59 76.73 76.92 76.70 76.62 76.68 76.77 77.12 77.21 77.08 77.06 77.32 77.57 77.40 77.35 76.71 76.24 75.27 74.58 73.91 73.37 72.92 73.64 74.66 74.48 75.37 71.93 72.36 73.16 72.42 75.79 74.95 74.47 73.71 73.35 73.35 72.86
71.17 72.42 72.64 73.21 73.24 73.19 74.12 76.25 76.91 76.71 76.80 76.83 76.97 77.02 76.54 76.93 77.01 76.73 77.16 77.58 76.85 76.85 76.65 76.32 75.76 74.96 74.30 74.30 74.96 75.32 74.72 74.83 69.27 70.02 71.04 71.89 75.15 73.77 73.58 73.63 73.75 73.73 73.43
68.34 69.59 72.06 72.32 72.02 72.21 73.14 74.61 76.52 76.59 77.02 77.16 76.67 76.81 76.58 72.37 73.49 74.54 76.05 76.79 76.77 76.71 76.63 76.62 76.45 76.16 75.61 75.83 75.98 75.91 75.78 71.24 68.00 69.87 70.69 74.48 74.99 73.83 73.83 73.38 73.08 72.99 73.36
67.22 70.47 71.27 71.90 72.40 72.60 74.26 73.55 73.85 74.59 73.64 73.45 73.71 73.59 73.33 71.70 72.19 73.98 75.10 76.41 76.43 76.32 76.16 76.54 76.65 76.89 76.52 73.87 73.08 76.01 73.86 72.50 68.46 69.47 71.40 75.10 75.36 73.78 73.31 73.17 73.49 73.58 73.89
68.06 68.11 69.22 70.27 72.08 70.82 72.75 73.23 71.88 72.99 72.51 72.53 73.06 73.60 72.66 72.68 72.89 72.67 72.72 73.09 72.51 75.71 73.43 75.32 75.34 74.75 74.02 73.83 73.65 72.33 72.88 68.15 68.08 69.20 72.82 75.14 75.40 74.02 73.72 73.69 73.63 73.97 74.39
66.16 66.49 69.29 71.36 70.67 69.33 71.98 69.49 67.22 71.37 71.61 69.90 71.29 71.08 70.18 68.76 69.18 69.23 70.25 71.51 71.45 71.46 72.27 71.83 72.15 73.03 72.85 73.30 73.23 71.91 69.44 68.12 67.68 69.13 72.61 75.57 75.59 75.00 74.30 74.41 74.51 74.75 75.07
67.78 68.42 69.41 69.93 67.28 71.29 72.04 70.97 71.01 71.07 69.28 70.19 70.82 71.18 72.22 70.42 69.04 70.23 70.72 71.18 71.65 71.58 71.56 70.45 70.71 71.09 70.34 69.54 70.04 68.50 68.27 67.76 67.60 69.01 70.45 75.29 75.76 75.90 75.51 75.56 75.47 75.63 76.06
68.33 69.67 70.14 67.07 69.67 71.18 69.35 70.22 70.30 71.15 69.31 69.61 70.06 72.83 72.70 70.00 69.21 71.30 70.11 71.29 71.42 71.27 71.81 71.24 71.26 72.00 71.82 68.10 68.72 68.38 67.95 68.72 68.45 68.44 69.12 71.92 75.93 76.18 76.28 76.32 76.36 76.82 76.92
70.13 71.64 71.18 70.42 71.12 70.23 68.77 70.78 66.58 69.96 71.25 71.15 72.35 72.24 71.42 71.24 72.30 72.39 71.21 71.67 73.09 71.82 71.25 70.21 71.40 72.76 69.49 70.02 67.98 68.95 69.03 69.27 69.88 69.13 69.18 69.64 72.67 76.35 76.69 76.92 77.58 77.59 77.60
70.69 70.76 70.79 72.50 72.39 71.69 71.01 70.33 70.73 69.07 70.90 71.43 71.70 72.21 72.75 73.16 72.17 72.66 72.42 71.36 71.33 72.56 71.89 73.01 71.76 70.20 69.31 68.10 68.25 69.11 68.36 69.41 69.70 70.26 70.34 70.22 70.13 71.44 75.34 77.23 77.48 77.57 77.86
70.68 70.54 69.93 71.02 71.29 70.86 70.84 72.11 70.89 71.61 70.31 70.07 70.47 70.34 72.34 72.95 73.58 73.75 72.07 73.56 73.00 71.59 71.72 71.08 73.58 73.46 70.55 68.17 69.21 69.49 69.27 69.35 69.25 71.73 70.63 70.72 70.71 71.31 71.48 74.13 76.70 77.38 78.03
70.60 70.51 70.68 71.55 72.10 71.23 72.81 71.92 70.35 71.06 69.33 70.77 70.84 70.88 73.51 73.72 74.12 73.29 71.84 69.59 68.46 69.31 69.43 69.59 72.55 71.67 71.91 71.69 70.84 70.34 69.40 69.71 70.08 70.08 69.16 69.72 67.82 70.32 71.79 70.36 71.52 71.90 75.02
70.22 69.67 69.61 70.06 70.70 69.35 70.63 70.41 70.39 69.82 68.30 70.32 71.75 73.61 73.00 72.67 73.67 74.28 72.76 69.19 67.16 67.77 68.31 69.66 70.50 69.36 69.62 67.58 71.36 69.66 68.65 66.88 66.43 65.92 66.35 66.94 68.14 70.46 70.46 72.89 71.53 71.35 70.76
69.13 69.25 70.65 72.22 71.25 71.12 71.92 70.57 70.23 70.22 70.32 70.92 71.45 73.48 73.36 72.85 74.36 74.47 70.94 70.05 65.75 65.56 66.61 69.63 68.82 65.85 64.94 69.42 69.42 66.12 65.89 67.58 65.07 66.84 67.96 68.42 66.53 69.53 71.67 71.34 71.01 71.73 72.22
68.85 69.20 70.48 72.27 71.81 70.99 71.95 70.79 71.83 71.42 68.33 68.81 70.50 72.00 72.43 74.35 73.55 73.93 72.55 70.98 70.24 71.08 70.78 68.57 67.53 67.64 66.08 66.75 71.43 68.43 65.12 61.82 62.06 64.53 65.07 67.95 67.17 67.93 68.99 70.10 72.11 72.35 71.37
69.04 70.27 71.46 71.98 71.80 72.73 72.10 70.22 70.33 68.19 67.73 67.90 69.19 71.23 71.31 72.72 74.04 74.12 74.70 73.95 72.01 72.08 66.40 71.18 71.52 68.92 65.27 64.55 66.28 71.10 67.04 63.37 58.64 61.08 64.72 67.24 67.27 67.26 67.45 67.92 70.21 69.97 71.58
69.91 70.16 71.60 71.49 71.62 71.89 72.04 71.68 70.21 69.42 70.10 70.60 70.32 73.13 71.93 72.29 73.33 73.47 73.76 73.48 72.21 71.11 72.11 72.15 71.20 68.67 69.51 66.75 63.14 66.72 65.12 65.64 66.70 65.10 61.50 62.49 66.57 67.57 68.73 68.86 68.62 68.52 70.83
69.95 70.17 71.53 70.63 70.83 71.82 71.74 71.68 71.05 69.87 68.32 69.09 71.36 70.73 71.70 72.07 72.36 72.86 74.11 73.84 73.82 73.88 73.39 73.36 73.14 72.99 72.98 71.33 68.72 67.60 65.77 68.38 65.44 65.94 64.26 64.10 62.93 66.89 68.00 69.00 69.82 71.01 72.19
MSLP
1015.67 1015.59 1015.79 1015.68 1015.76 1015.81 1015.90 1016.14 1016.10 1015.90 1015.85 1016.11 1015.93 1016.20 1016.24 1016.29 1016.41 1016.34 1016.30 1016.38 1016.57 1016.81 1016.96 1016.98 1017.01 1017.10 1017.19 1017.07 1017.12 1017.24 1017.40 1017.42 1017.41 1017.40 1017.61 1017.69 1017.70 1017.78 1017.89 1018.01 1018.09 1018.28 1018.33
1015.05 1015.47 1015.74 1015.60 1015.59 1015.72 1015.93 1015.93 1016.09 1016.08 1016.17 1016.02 1016.01 1016.36 1016.49 1016.55 1016.61 1016.55 1016.63 1016.63 1016.92 1017.14 1017.18 1017.14 1017.18 1017.31 1017.32 1017.28 1017.20 1017.37 1017.54 1017.61 1017.56 1017.61 1017.82 1017.83 1017.95 1018.06 1018.05 1018.16 1018.35 1018.39 1018.43
1015.11 1015.33 1015.60 1015.68 1015.60 1015.77 1015.79 1015.99 1016.23 1016.16 1016.12 1016.29 1016.44 1016.50 1016.60 1016.68 1016.65 1016.85 1016.95 1016.87 1017.10 1017.15 1017.27 1017.31 1017.42 1017.39 1017.50 1017.60 1017.50 1017.54 1017.85 1017.84 1017.86 1017.83 1017.85 1018.03 1018.17 1018.27 1018.32 1018.35 1018.53 1018.55 1018.61
1014.62 1015.08 1015.48 1015.66 1015.68 1015.65 1015.77 1016.09 1016.27 1016.27 1016.31 1016.61 1016.62 1016.76 1016.77 1016.74 1016.87 1017.01 1017.04 1017.03 1017.11 1017.31 1017.38 1017.44 1017.42 1017.50 1017.73 1017.83 1017.66 1017.90 1018.00 1018.03 1018.05 1017.96 1018.22 1018.09 1018.19 1018.41 1018.53 1018.51 1018.74 1018.78 1018.83
1014.88 1015.11 1015.34 1015.72 1015.87 1015.99 1016.12 1016.18 1016.43 1016.37 1016.61 1016.86 1016.95 1016.91 1016.96 1016.94 1016.94 1017.00 1017.00 1017.21 1017.28 1017.39 1017.55 1017.61 1017.52 1017.73 1017.95 1017.94 1017.98 1018.19 1018.05 1018.08 1018.04 1018.03 1018.42 1018.48 1018.61 1018.61 1018.63 1018.60 1018.75 1018.79 1018.93
1015.55 1015.62 1015.60 1015.71 1016.10 1016.33 1016.44 1016.44 1016.69 1016.71 1016.78 1016.86 1016.95 1016.99 1017.19 1017.10 1017.05 1017.22 1017.15 1017.37 1017.35 1017.54 1017.66 1017.70 1017.70 1017.88 1018.12 1018.09 1018.04 1018.05 1018.04 1018.02 1018.11 1018.43 1018.56 1018.57 1018.77 1018.82 1018.86 1018.88 1018.85 1019.03 1019.10
1015.39 1015.87 1016.02 1015.95 1016.19 1016.32 1016.63 1016.69 1016.83 1016.90 1016.94 1016.99 1017.00 1017.10 1017.22 1017.21 1017.22 1017.31 1017.29 1017.52 1017.55 1017.89 1017.92 1017.89 1017.92 1018.02 1018.12 1018.28 1018.29 1018.21 1018.04 1017.90 1018.13 1018.56 1018.60 1018.76 1018.94 1018.96 1019.06 1019.14 1019.18 1019.27 1019.36
1015.29 1015.72 1016.22 1016.16 1016.23 1016.46 1016.66 1016.63 1016.77 1017.06 1017.20 1017.17 1017.29 1017.38 1017.39 1017.38 1017.40 1017.42 1017.59 1017.67 1017.76 1018.15 1018.14 1018.11 1018.09 1018.12 1018.14 1018.21 1018.33 1018.35 1018.28 1018.21 1018.21 1018.42 1018.67 1018.99 1019.07 1019.02 1019.00 1019.21 1019.33 1019.44 1019.49
1015.31 1015.57 1016.11 1016.12 1016.30 1016.58 1016.88 1016.96 1017.01 1017.29 1017.41 1017.39 1017.54 1017.56 1017.55 1017.52 1017.49 1017.72 1017.79 1017.86 1017.99 1018.22 1018.24 1018.20 1018.24 1018.16 1018.14 1018.15 1018.13 1018.13 1018.15 1018.44 1018.51 1018.52 1018.77 1019.12 1019.13 1019.14 1019.23 1019.36 1019.47 1019.54 1019.53
1015.83 1015.66 1015.77 1016.18 1016.67 1017.01 1016.98 1017.01 1017.05 1017.22 1017.41 1017.48 1017.59 1017.67 1017.71 1017.64 1017.75 1017.90 1017.95 1017.99 1018.12 1018.22 1018.19 1018.28 1018.34 1018.32 1018.25 1018.24 1018.15 1018.10 1018.21 1018.37 1018.69 1018.69 1019.05 1019.16 1019.24 1019.28 1019.37 1019.47 1019.51 1019.44 1019.36
1015.88 1016.06 1015.77 1016.16 1016.77 1017.09 1017.07 1017.06 1017.27 1017.34 1017.39 1017.35 1017.62 1017.67 1017.78 1017.95 1017.96 1018.08 1018.09 1018.09 1018.11 1018.28 1018.32 1018.34 1018.39 1018.34 1018.35 1018.34 1018.20 1018.05 1018.07 1018.56 1018.81 1018.94 1019.16 1019.33 1019.46 1019.52 1019.58 1019.63 1019.57 1019.49 1019.45
1015.51 1015.68 1016.08 1016.39 1016.81 1016.87 1016.67 1016.92 1017.18 1017.35 1017.39 1017.45 1017.62 1017.72 1017.95 1018.06 1018.05 1018.12 1018.16 1018.11 1018.28 1018.42 1018.53 1018.58 1018.53 1018.50 1018.45 1018.34 1018.06 1017.81 1018.13 1018.25 1018.60 1018.96 1019.10 1019.34 1019.51 1019.53 1019.58 1019.57 1019.44 1019.42 1019.46
1014.95 1015.84 1016.85 1016.41 1016.28 1016.69 1016.85 1017.38 1017.61 1017.57 1017.38 1017.49 1017.53 1017.56 1017.82 1017.97 1018.03 1018.15 1018.35 1018.27 1018.58 1018.49 1018.63 1018.61 1018.60 1018.66 1018.48 1018.38 1017.86 1017.76 1018.07 1018.37 1018.52 1018.54 1018.86 1019.07 1019.15 1019.16 1019.15 1019.13 1019.13 1019.15 1019.14
1014.94 1015.56 1016.46 1016.30 1016.42 1017.37 1017.03 1017.27 1017.36 1017.53 1017.24 1017.13 1017.28 1017.58 1017.91 1018.06 1018.25 1018.26 1018.36 1018.52 1018.70 1018.59 1018.62 1018.58 1018.41 1018.29 1018.25 1018.26 1017.90 1018.00 1018.26 1018.38 1018.48 1018.64 1018.82 1018.93 1018.98 1018.99 1019.02 1018.98 1018.94 1018.93 1018.86
1014.72 1015.57 1016.25 1016.54 1017.50 1017.23 1017.11 1017.68 1017.67 1017.31 1016.93 1016.91 1017.08 1017.40 1017.58 1017.91 1018.11 1018.28 1018.28 1018.50 1018.61 1018.51 1018.41 1018.28 1018.13 1018.06 1017.88 1017.60 1017.75 1017.68 1017.76 1018.29 1018.42 1018.48 1018.73 1018.82 1019.06 1019.20 1019.24 1019.30 1019.29 1019.19 1018.80
1014.62 1015.03 1016.00 1016.46 1016.86 1016.54 1017.25 1018.36 1017.68 1016.75 1016.68 1016.82 1017.13 1017.25 1017.44 1017.77 1017.87 1018.00 1018.21 1018.36 1018.45 1018.07 1017.63 1017.82 1017.77 1017.77 1017.82 1017.50 1017.60 1017.46 1017.74 1018.10 1018.28 1018.40 1018.65 1018.77 1018.66 1018.64 1018.72 1018.79 1018.87 1018.93 1018.95
1013.86 1014.77 1015.51 1016.36 1016.90 1017.41 1018.60 1017.62 1016.99 1016.54 1016.72 1016.95 1017.10 1017.23 1017.54 1017.78 1017.81 1018.02 1018.41 1018.30 1017.92 1017.68 1017.55 1017.56 1017.62 1017.79 1017.97 1017.59 1017.81 1017.74 1017.57 1017.81 1018.00 1018.25 1018.46 1018.59 1018.48 1018.53 1018.61 1018.70 1018.74 1018.63 1018.47
1013.72 1014.45 1015.03 1015.63 1015.81 1016.27 1016.82 1017.03 1016.36 1016.61 1016.82 1016.71 1017.01 1017.42 1017.51 1017.68 1017.78 1018.19 1018.47 1018.32 1017.81 1017.81 1017.90 1017.81 1018.01 1018.17 1018.12 1017.79 1017.85 1017.99 1017.91 1017.55 1017.54 1017.98 1018.18 1018.62 1018.82 1018.56 1018.46 1018.43 1018.39 1018.26 1018.29
1013.61 1014.28 1014.70 1015.21 1015.64 1015.82 1015.75 1016.19 1016.54 1016.55 1017.10 1017.11 1017.36 1017.44 1017.59 1017.66 1017.86 1018.18 1018.17 1018.09 1018.07 1017.86 1018.16 1018.37 1018.29 1018.01 1017.95 1018.10 1017.95 1018.04 1018.09 1017.84 1017.71 1017.58 1018.00 1018.38 1018.93 1019.14 1019.06 1019.36 1018.98 1018.59 1018.17
1013.55 1014.12 1014.66 1015.20 1015.71 1015.79 1016.08 1016.27 1016.57 1016.86 1017.49 1017.20 1017.40 1017.47 1017.57 1017.79 1017.99 1017.82 1018.62 1018.86 1018.47 1018.23 1018.58 1019.15 1019.03 1018.40 1018.62 1018.58 1018.21 1017.90 1018.03 1017.79 1018.31 1018.83 1019.15 1020.57 1020.01 1019.68 1020.62 1021.06 1020.98 1020.19 1019.57
1013.26 1013.98 1014.49 1015.01 1015.58 1015.77 1016.31 1016.60 1016.92 1017.34 1017.40 1017.29 1017.26 1017.19 1017.39 1017.82 1017.91 1018.02 1018.96 1018.90 1018.56 1018.46 1018.83 1019.41 1018.79 1019.00 1018.62 1018.84 1018.74 1018.76 1018.87 1019.01 1019.11 1019.33 1019.42 1019.96 1019.88 1018.04 1020.29 1020.08 1020.20 1020.28 1019.45
1012.79 1013.63 1014.38 1015.09 1015.44 1015.60 1016.13 1016.46 1016.65 1016.94 1017.07 1017.06 1017.13 1017.19 1017.26 1017.60 1017.83 1018.04 1018.68 1019.11 1019.31 1019.60 1018.91 1019.47 1019.45 1019.32 1019.51 1019.43 1020.72 1020.57 1020.43 1019.86 1019.33 1018.96 1019.50 1020.08 1019.71 1019.17 1019.78 1018.84 1020.55 1020.17 1019.49
1012.44 1013.07 1013.82 1014.79 1015.17 1015.42 1015.98 1016.24 1016.30 1016.90 1017.44 1017.51 1017.44 1017.37 1017.25 1017.45 1017.69 1017.98 1018.71 1018.79 1019.35 1019.33 1019.38 1019.90 1019.90 1018.57 1019.68 1020.20 1020.19 1020.65 1021.42 1021.79 1020.91 1019.64 1019.24 1019.33 1019.73 1020.04 1020.41 1020.12 1019.21 1018.75 1018.73
1011.92 1012.71 1013.31 1014.07 1014.73 1015.22 1015.70 1016.25 1016.25 1016.89 1017.38 1017.35 1017.28 1017.24 1017.31 1017.15 1017.50 1017.84 1018.20 1018.27 1018.57 1019.01 1019.55 1019.87 1019.37 1019.01 1019.83 1020.68 1020.64 1020.65 1021.63 1021.63 1021.63 1021.20 1018.85 1018.72 1018.99 1018.44 1019.07 1018.64 1017.35 1017.50 1018.07
1011.48 1012.08 1012.98 1013.39 1014.09 1014.78 1015.32 1015.86 1016.28 1016.74 1016.92 1016.83 1017.21 1017.31 1017.35 1017.15 1017.42 1017.66 1018.10 1018.22 1019.15 1019.26 1018.91 1019.28 1019.45 1019.42 1019.76 1020.03 1020.00 1020.18 1021.13 1021.36 1021.38 1020.99 1020.50 1019.36 1019.20 1018.12 1017.76 1017.02 1016.77 1017.39 1017.66
1010.94 1011.77 1012.57 1013.32 1013.59 1014.17 1014.79 1015.38 1015.79 1016.26 1016.52 1016.82 1016.99 1017.29 1017.28 1017.29 1017.37 1017.43 1017.77 1017.97 1018.27 1018.55 1018.79 1018.93 1018.80 1019.08 1019.46 1019.76 1019.69 1020.06 1020.51 1020.62 1020.80 1020.73 1020.48 1019.78 1019.47 1018.50 1017.60 1017.24 1017.22 1017.65 1017.27
Wind_Speed
6 9 15 16 16 14 13 9 7 8 10 8 12 11 13 13 12 13 14 14 13 12 12 15 13 13 11 12 13 14 14 15 16 17 17 17 15 10 13 16 16 13 16
13 10 15 16 17 14 14 12 7 11 12 10 11 11 12 13 13 13 13 14 13 11 12 13 13 12 11 11 12 12 12 12 14 17 16 16 16 16 15 17 15 13 15
12 11 11 14 17 16 14 14 13 9 13 12 10 12 13 13 14 13 12 14 12 13 13 13 12 12 11 10 10 10 10 9 11 14 17 7 7 14 14 15 14 14 14
14 10 9 14 15 17 16 15 12 14 13 14 12 13 13 14 13 13 13 14 15 13 13 13 13 11 10 10 10 9 9 7 7 5 4 7 9 13 13 14 12 13 13
12 9 11 13 13 15 15 14 13 14 14 13 13 13 14 14 14 13 14 14 14 13 13 12 14 11 10 10 9 8 7 6 4 4 6 7 5 9 10 12 11 12 12
9 9 12 16 13 13 13 12 11 12 13 11 13 14 14 14 15 14 15 14 14 12 12 12 11 10 10 9 7 3 3 1 8 7 7 9 5 11 12 11 11 12 10
11 7 9 15 15 14 13 12 12 11 11 11 12 14 14 14 14 14 15 14 15 12 11 10 9 8 8 7 4 1 3 3 7 6 7 6 5 9 11 10 10 9 9
7 9 8 14 15 15 14 13 14 12 12 11 13 12 14 13 13 13 13 14 14 12 11 10 8 6 5 3 2 4 2 4 11 9 8 5 7 9 9 9 8 8 7
8 11 9 7 11 14 14 14 14 13 11 11 12 13 14 13 13 13 13 12 11 10 10 10 8 5 3 3 6 6 2 6 4 7 8 4 7 8 8 7 7 6 6
4 13 11 7 6 5 7 14 14 14 13 12 13 14 14 13 13 12 8 9 10 10 10 8 7 5 3 5 7 6 5 7 4 7 5 4 8 9 8 7 6 6 5
5 3 13 12 8 7 6 8 11 13 14 13 12 13 11 4 6 8 9 10 10 9 8 8 8 6 6 8 9 8 6 1 5 4 4 9 7 8 7 6 5 4 3
9 2 5 10 10 9 8 6 6 6 4 5 6 6 4 5 5 7 7 10 9 7 7 7 8 8 8 4 4 10 2 4 5 4 4 9 8 8 6 6 5 4 4
11 7 5 8 6 6 6 3 2 2 4 3 6 7 5 5 4 3 3 3 2 7 3 5 5 5 6 5 6 5 3 4 4 4 7 10 9 9 8 7 6 6 5
7 8 7 8 7 4 1 4 3 4 4 4 5 7 4 3 3 3 3 3 4 3 5 4 3 6 9 9 8 5 4 4 3 3 6 10 9 9 9 9 8 7 7
14 10 9 12 9 4 2 0 4 4 4 4 5 5 4 4 5 4 4 4 3 3 4 5 5 4 5 1 5 5 9 6 6 4 3 12 9 9 10 9 8 9 10
13 16 11 10 10 9 5 6 6 4 4 4 2 2 5 4 3 1 1 3 2 4 3 4 3 1 3 2 4 4 6 6 5 6 4 6 13 12 12 12 11 11 12
15 16 13 14 17 14 13 11 7 4 2 4 4 5 5 3 2 1 2 4 3 1 3 3 2 4 1 2 3 3 3 7 6 6 5 4 6 13 12 13 12 12 13
16 13 12 10 8 9 11 8 3 2 2 4 4 3 4 3 1 3 4 2 3 4 3 4 3 2 1 3 3 2 3 3 5 7 5 4 4 5 9 14 14 14 14
16 13 8 10 9 7 4 4 4 6 3 3 2 2 3 2 2 4 3 6 4 4 4 3 4 4 4 4 4 4 4 4 4 3 4 6 3 5 3 8 14 15 15
14 10 9 7 6 7 4 4 4 4 2 4 2 2 5 3 5 1 6 5 3 4 4 5 4 6 2 4 5 5 5 4 3 7 9 11 10 7 11 15 13 10 19
13 13 11 10 8 4 2 2 3 2 3 1 3 6 5 3 4 4 6 5 1 3 4 3 3 5 3 7 3 5 5 5 6 2 4 5 6 6 7 14 14 8 10
13 13 13 11 7 6 3 3 3 3 1 3 1 4 6 6 5 6 6 4 2 5 4 5 2 3 3 5 3 1 5 5 5 2 3 5 4 2 3 14 9 19 12
15 12 15 11 9 6 5 3 2 4 4 3 0 2 4 4 5 6 6 5 7 3 4 2 8 6 4 5 1 4 3 5 4 4 3 2 3 7 4 8 12 17 7
17 13 15 14 10 7 9 4 5 4 4 4 4 3 4 6 5 4 7 7 9 6 4 4 4 3 4 2 3 4 1 4 3 6 3 2 4 5 4 6 2 4 5
18 17 13 16 13 8 8 6 6 5 4 3 2 5 3 3 5 4 5 7 11 8 5 3 4 4 4 3 2 2 3 2 1 3 5 6 4 6 2 7 3 2 10
17 16 14 14 15 9 8 8 6 7 6 4 5 4 4 4 3 4 4 6 6 5 2 4 2 2 4 3 3 3 4 3 3 3 4 5 4 5 4 5 4 3 4
Wind_Direction
161 151 142 139 143 145 131 127 129 117 107 100 90 89 90 90 90 88 89 88 89 98 110 113 107 104 105 101 101 102 106 108 104 96 86 84 74 93 108 101 98 101 100
139 143 138 133 130 127 124 108 91 123 123 106 103 104 100 96 96 93 94 95 95 104 112 109 114 107 105 104 99 101 106 109 112 108 96 88 86 86 97 96 94 99 98
135 140 138 136 134 136 124 128 126 131 122 117 123 110 110 105 97 99 101 94 96 103 114 118 112 114 110 104 105 108 108 117 123 116 106 100 90 91 93 97 97 95 92
139 143 139 139 143 138 135 146 147 138 126 125 122 120 115 106 104 109 102 103 99 104 108 111 111 109 113 111 109 101 99 114 149 137 111 100 94 93 96 96 101 99 93
137 142 142 137 138 135 139 143 148 131 125 127 119 116 112 109 106 102 105 109 108 104 109 113 113 118 120 117 107 110 130 145 138 137 103 96 87 98 107 106 96 95 93
119 135 144 139 139 134 135 132 135 126 127 127 121 117 112 108 102 111 107 110 106 106 112 109 116 126 126 124 118 116 86 181 162 89 91 91 91 105 99 97 95 98 95
125 134 140 140 140 144 137 134 130 130 123 123 123 118 120 112 107 114 115 115 109 111 109 117 126 128 129 129 122 57 335 3 101 112 103 95 98 107 102 98 98 99 96
136 130 148 141 141 138 141 139 135 131 135 128 121 126 121 118 111 111 120 119 114 117 125 135 142 143 138 125 186 223 252 49 126 114 106 92 97 112 112 105 102 101 100
170 134 145 138 141 141 145 140 136 137 138 134 133 127 128 125 120 118 129 129 123 136 142 146 153 156 168 208 243 252 335 22 121 126 120 114 122 124 120 120 119 118 117
183 152 148 135 121 134 146 144 146 146 145 145 144 140 137 138 136 127 118 131 147 158 158 153 162 180 227 261 277 311 337 22 115 97 112 140 141 138 133 133 132 131 131
121 148 149 147 150 152 149 155 152 157 155 153 154 153 148 150 139 145 151 165 178 179 170 177 188 198 232 262 273 281 279 114 124 120 125 139 150 145 145 145 148 155 165
129 82 100 140 140 154 160 150 166 179 165 168 167 172 185 195 158 155 170 191 195 198 196 209 218 221 232 245 246 260 184 233 130 143 129 153 161 156 158 167 181 194 213
155 150 142 128 166 177 138 134 184 194 184 193 193 182 183 168 153 158 181 217 217 229 224 214 233 230 235 232 243 236 158 145 150 135 150 166 172 171 179 187 201 213 229
163 170 150 161 177 46 199 150 188 187 225 182 188 179 154 141 167 186 186 217 215 235 247 231 218 223 230 234 241 243 138 142 126 124 163 176 186 191 195 205 216 222 233
156 146 155 172 97 74 25 335 241 227 196 181 153 163 153 168 185 174 218 205 214 262 221 238 237 222 236 100 175 167 127 141 150 149 166 182 197 207 215 226 239 244 242
149 153 165 139 128 135 227 271 238 183 168 151 143 212 178 175 159 188 258 289 248 236 201 208 192 256 311 78 30 81 113 146 156 160 171 188 201 210 218 225 232 244 255
145 146 149 148 158 157 166 222 227 112 132 147 158 123 148 150 159 154 280 288 260 286 353 23 340 1 207 112 160 155 148 145 171 175 180 195 211 218 227 236 238 240 246
139 149 148 156 140 174 161 180 129 176 186 156 97 52 136 135 155 38 18 279 282 30 5 341 344 317 249 186 204 215 176 191 175 171 193 183 204 225 229 238 245 243 244
147 155 150 136 152 180 167 112 116 137 105 97 137 54 202 193 84 66 5 354 47 44 44 1 321 295 206 235 203 223 205 199 200 237 205 193 293 350 320 315 278 265 254
146 135 127 120 158 149 120 103 121 119 137 154 162 199 209 166 113 85 76 54 53 40 16 45 2 15 324 19 288 197 194 203 15 34 48 48 54 44 55 23 351 329 327
138 136 151 154 186 143 125 122 97 189 140 143 171 173 175 146 154 173 108 102 158 127 66 34 34 7 2 8 33 7 24 68 91 88 57 81 63 13 73 87 344 326 301
154 148 159 164 179 165 161 171 156 149 172 152 174 209 181 182 163 97 123 133 354 14 31 47 315 231 47 58 38 114 11 323 334 330 110 103 122 157 173 110 216 259 283
158 160 158 164 178 162 146 116 73 84 42 35 199 189 208 189 162 124 155 121 101 16 350 312 255 92 66 24 222 128 81 247 305 348 339 107 91 183 167 127 186 223 249
168 168 153 165 178 166 152 175 151 164 156 202 184 191 200 169 175 167 137 118 81 312 179 221 264 66 86 204 269 113 140 184 88 327 314 331 79 315 197 201 262 333 339
167 169 165 166 173 174 163 173 189 176 172 138 147 182 193 183 164 151 157 146 151 205 242 196 203 172 202 157 187 64 66 29 258 189 283 325 353 282 297 256 2 262 247
170 169 163 173 179 174 169 182 201 180 152 145 150 149 173 200 189 192 177 162 154 166 181 229 152 141 156 176 226 214 186 181 202 216 258 265 238 281 279 302 298 344 256